Ranch 30 (Forestville-NE) CA US current weather conditions

sailwx.info

Wind from 108 at 0 knots gusting 2

Air temperature 16.3° C
Dewpoint 13.2° C

Last reported at 2019-Aug-21 04:45 UTC.
Time now 2019-Aug-21 05:29 UTC

Location: N 38°30' W 122°53'.
View on Google Maps.

See reports from other nearby stations

  
Tides and Currents Weather Stations Pressure Air Temp Water Temp Dewpoint Dewpoint Depression Visibility Wind Speed Wind Dir Waves Ship Positions
date/time (UTC)wind fromknots sea level pressurealtimeterstation pressurevisibilityair tempwater tempwave heightnotes
2019-Aug-21 05:00 020 0 gusting 1 15.8
2019-Aug-21 04:45 108 0 gusting 2 16.3
2019-Aug-21 04:30 075 0 gusting 1 16.9
2019-Aug-21 04:15 066 0 gusting 2 17.5
2019-Aug-21 04:00 026 0 gusting 2 18.0
2019-Aug-21 03:45 102 1 gusting 3 18.7
2019-Aug-21 03:30 106 2 gusting 5 19.4
2019-Aug-21 03:15 079 1 gusting 4 19.9
2019-Aug-21 03:00 242 0 gusting 1 20.7
2019-Aug-21 02:45 237 1 gusting 3 21.3
2019-Aug-21 02:30 218 2 gusting 4 21.9
2019-Aug-21 02:15 228 1 gusting 2 22.7
2019-Aug-21 02:00 271 1 gusting 2 22.9
2019-Aug-21 01:45 265 2 gusting 6 23.1
2019-Aug-21 01:30 248 3 gusting 7 23.7
2019-Aug-21 01:15 253 3 gusting 7 24.4
2019-Aug-21 01:00 257 4 gusting 9 24.5
2019-Aug-21 00:45 249 4 gusting 8 25.2
2019-Aug-21 00:30 241 5 gusting 10 26.0
2019-Aug-21 00:15 296 3 gusting 8 26.9
2019-Aug-21 00:00 284 4 gusting 10 26.4
2019-Aug-20 23:45 292 5 gusting 11 27.3
2019-Aug-20 23:30 151 4 gusting 9 28.0
2019-Aug-20 23:15 160 4 gusting 10 28.2
2019-Aug-20 23:00 146 3 gusting 8 27.5
2019-Aug-20 22:45 162 4 gusting 7 26.9
2019-Aug-20 22:30 168 4 gusting 6 27.6
2019-Aug-20 22:15 149 4 gusting 9 27.8
2019-Aug-20 22:00 141 4 gusting 9 27.7
2019-Aug-20 21:45 161 4 gusting 8 27.3
2019-Aug-20 21:30 185 2 gusting 6 26.9
2019-Aug-20 21:15 185 2 gusting 7 26.5
2019-Aug-20 21:00 200 2 gusting 5 25.9
2019-Aug-20 20:45 173 2 gusting 7 26.1
2019-Aug-20 20:30 227 1 gusting 5 24.8
2019-Aug-20 20:15 209 3 gusting 8 23.9
2019-Aug-20 20:00 107 2 gusting 6 24.3
2019-Aug-20 19:45 115 3 gusting 8 23.7
2019-Aug-20 19:30 120 2 gusting 6 23.0
2019-Aug-20 19:15 109 3 gusting 7 22.0
2019-Aug-20 19:00 116 2 gusting 8 21.3
2019-Aug-20 18:45 131 3 gusting 7 20.2
2019-Aug-20 18:30 120 2 gusting 6 19.6
2019-Aug-20 18:15 142 2 gusting 6 17.9
2019-Aug-20 18:00 150 1 gusting 4 17.1
2019-Aug-20 17:45 171 1 gusting 4 16.5
2019-Aug-20 17:30 160 1 gusting 3 16.0
2019-Aug-20 17:15 176 1 gusting 4 15.4
2019-Aug-20 17:00 164 1 gusting 4 15.0
2019-Aug-20 16:45 189 2 gusting 4 14.9
2019-Aug-20 16:30 188 0 gusting 2 15.0
2019-Aug-20 16:15 223 1 gusting 3 14.6
2019-Aug-20 16:00 219 1 gusting 3 14.3
2019-Aug-20 15:45 192 0 gusting 3 14.0
2019-Aug-20 15:30 199 2 gusting 4 13.9
2019-Aug-20 15:15 192 1 gusting 2 13.9
2019-Aug-20 15:00 218 0 gusting 2 13.9
2019-Aug-20 14:45 236 1 gusting 2 13.6
2019-Aug-20 14:30 202 1 gusting 2 13.5
2019-Aug-20 14:15 256 1 gusting 2 13.5
2019-Aug-20 14:00 304 1 gusting 2 13.4
2019-Aug-20 13:45 305 1 gusting 3 13.4
2019-Aug-20 13:30 315 0 gusting 2 13.3
2019-Aug-20 13:15 318 1 gusting 3 13.2
2019-Aug-20 13:00 293 2 gusting 4 13.3
2019-Aug-20 12:45 289 2 gusting 4 13.3
2019-Aug-20 12:30 264 1 gusting 3 13.5
2019-Aug-20 12:15 243 0 gusting 2 13.7
2019-Aug-20 12:00 252 0 gusting 2 13.7
2019-Aug-20 11:45 289 1 gusting 2 13.7
2019-Aug-20 11:30 264 0 gusting 2 13.8
2019-Aug-20 11:15 239 1 gusting 4 13.7
2019-Aug-20 11:00 155 0 gusting 3 13.7
2019-Aug-20 10:45 195 0 gusting 2 13.7
2019-Aug-20 10:30 197 1 gusting 2 13.7
2019-Aug-20 10:15 179 1 gusting 2 13.6
2019-Aug-20 10:00 196 0 gusting 2 13.7
2019-Aug-20 09:45 105 0 gusting 2 13.9
2019-Aug-20 09:30 276 1 gusting 2 13.8
2019-Aug-20 09:15 318 0 gusting 1 13.8
2019-Aug-20 09:00 271 0 gusting 1 13.7
2019-Aug-20 08:45 205 1 gusting 2 13.5
2019-Aug-20 08:30 150 1 gusting 3 13.6
2019-Aug-20 08:15 161 1 gusting 3 13.5
2019-Aug-20 08:00 174 1 gusting 2 13.4
2019-Aug-20 07:45 161 1 gusting 2 13.3
2019-Aug-20 07:30 127 2 gusting 4 13.0
2019-Aug-20 07:15 156 0 gusting 2 12.3
2019-Aug-20 07:00 170 0 gusting 1 12.7
2019-Aug-20 06:45 066 0 gusting 1 13.1
2019-Aug-20 06:30 190 0 gusting 0 13.2
2019-Aug-20 06:15 049 0 gusting 1 13.9
2019-Aug-20 06:00 060 1 gusting 2 13.9
2019-Aug-20 05:45 076 0 gusting 2 13.7
2019-Aug-20 05:30 248 0 gusting 0 14.0
2019-Aug-20 05:15 081 0 gusting 2 14.5
2019-Aug-20 05:00 097 1 gusting 3 14.7
2019-Aug-20 04:45 114 1 gusting 4 15.0
2019-Aug-20 04:30 112 2 gusting 5 15.3
2019-Aug-20 04:15 105 2 gusting 5 15.6
2019-Aug-20 04:00 114 2 gusting 5 16.0
2019-Aug-20 03:45 122 3 gusting 7 16.4
2019-Aug-20 03:30 123 3 gusting 6 16.9
2019-Aug-20 03:15 113 3 gusting 7 17.5
2019-Aug-20 03:00 094 2 gusting 5 18.6
2019-Aug-20 02:45 006 1 gusting 4 19.6
2019-Aug-20 02:30 317 2 gusting 4 20.5
2019-Aug-20 02:15 304 2 gusting 5 21.4
2019-Aug-20 02:00 298 2 gusting 6 22.1
2019-Aug-20 01:45 314 3 gusting 8 22.3
2019-Aug-20 01:30 301 3 gusting 7 23.3
2019-Aug-20 01:15 271 3 gusting 11 24.0
2019-Aug-20 01:00 302 4 gusting 9 24.0
2019-Aug-20 00:45 316 4 gusting 9 24.2
2019-Aug-20 00:30 320 4 gusting 11 25.0
2019-Aug-20 00:15 283 3 gusting 10 25.8
2019-Aug-20 00:00 193 4 gusting 9 26.0
2019-Aug-19 23:45 172 4 gusting 8 26.2
2019-Aug-19 23:30 173 5 gusting 9 26.0
2019-Aug-19 23:15 179 6 gusting 11 25.7
2019-Aug-19 23:00 173 6 gusting 11 25.8
2019-Aug-19 22:45 178 6 gusting 11 25.5
2019-Aug-19 22:30 172 5 gusting 11 25.8
2019-Aug-19 22:15 177 6 gusting 10 25.5
2019-Aug-19 22:00 174 5 gusting 10 25.8
2019-Aug-19 21:45 152 3 gusting 7 25.5
2019-Aug-19 21:30 143 3 gusting 8 25.4
2019-Aug-19 21:15 151 2 gusting 8 24.4
2019-Aug-19 21:00 185 2 gusting 7 23.4
2019-Aug-19 20:45 156 3 gusting 7 22.8
2019-Aug-19 20:30 168 3 gusting 6 21.6
2019-Aug-19 20:15 171 3 gusting 7 21.1
2019-Aug-19 20:00 207 2 gusting 5 20.6
2019-Aug-19 19:45 182 3 gusting 8 19.9
2019-Aug-19 19:30 196 2 gusting 6 19.9
2019-Aug-19 19:15 291 1 gusting 3 19.5
2019-Aug-19 19:00 113 0 gusting 2 18.8
2019-Aug-19 18:45 212 1 gusting 4 17.5
2019-Aug-19 18:30 210 3 gusting 6 17.0
2019-Aug-19 18:15 232 2 gusting 5 16.8
2019-Aug-19 18:00 172 1 gusting 5 16.6
2019-Aug-19 17:45 164 1 gusting 4 16.1
2019-Aug-19 17:30 217 1 gusting 3 15.3
2019-Aug-19 17:15 226 1 gusting 4 15.1
2019-Aug-19 17:00 182 1 gusting 4 14.9
2019-Aug-19 16:45 157 1 gusting 5 14.6
2019-Aug-19 16:30 178 2 gusting 4 14.1
2019-Aug-19 16:15 173 2 gusting 5 13.9
2019-Aug-19 16:00 147 1 gusting 4 14.1
2019-Aug-19 15:45 213 0 gusting 2 14.0
2019-Aug-19 15:30 058 0 gusting 2 13.9
2019-Aug-19 15:15 088 0 gusting 2 13.7
2019-Aug-19 15:00 141 0 gusting 2 13.5
2019-Aug-19 14:45 142 0 gusting 3 13.3
2019-Aug-19 14:30 158 0 gusting 2 13.2
2019-Aug-19 14:15 359 0 gusting 2 13.1
2019-Aug-19 14:00 143 1 gusting 4 13.1
2019-Aug-19 13:45 105 1 gusting 3 13.1
2019-Aug-19 13:30 356 0 gusting 1 13.1
2019-Aug-19 13:15 025 0 gusting 1 13.1
2019-Aug-19 13:00 004 0 gusting 2 13.2
2019-Aug-19 12:45 222 0 gusting 2 13.2
2019-Aug-19 12:30 145 1 gusting 3 13.3
2019-Aug-19 12:15 133 1 gusting 3 13.3
2019-Aug-19 12:00 173 0 gusting 2 13.3
2019-Aug-19 11:45 165 1 gusting 3 13.4
2019-Aug-19 11:30 126 1 gusting 3 13.5
2019-Aug-19 11:15 154 1 gusting 4 13.4
2019-Aug-19 11:00 153 1 gusting 4 13.5
2019-Aug-19 10:45 172 1 gusting 3 13.5
2019-Aug-19 10:30 172 1 gusting 3 13.6
2019-Aug-19 10:15 164 2 gusting 3 13.8
2019-Aug-19 10:00 142 1 gusting 4 13.8
2019-Aug-19 09:45 141 2 gusting 4 13.8
2019-Aug-19 09:30 156 2 gusting 4 13.9
2019-Aug-19 09:15 145 2 gusting 4 14.0
2019-Aug-19 09:00 126 1 gusting 4 14.0
2019-Aug-19 08:45 132 2 gusting 4 14.1
2019-Aug-19 08:30 131 2 gusting 4 14.1
2019-Aug-19 08:15 147 2 gusting 4 14.2
2019-Aug-19 08:00 166 2 gusting 4 14.2
2019-Aug-19 07:45 198 1 gusting 3 14.2
2019-Aug-19 07:30 211 1 gusting 3 14.3
2019-Aug-19 07:15 244 1 gusting 3 14.4
2019-Aug-19 07:00 273 0 gusting 2 14.5
2019-Aug-19 06:45 176 1 gusting 2 14.3
2019-Aug-19 06:30 182 1 gusting 3 14.3
2019-Aug-19 06:15 173 2 gusting 4 14.3
2019-Aug-19 06:00 173 2 gusting 4 14.2
2019-Aug-19 05:45 170 2 gusting 5 14.2
2019-Aug-19 05:30 169 2 gusting 4 14.1
2019-Aug-19 05:15 167 2 gusting 4 13.9
2019-Aug-19 05:00 171 1 gusting 4 13.7